Home > Weather > Chesapeake > Past weeks

Flag for USA Past Weather in Chesapeake, Virginia, USA — Yesterday and Last 2 Weeks

Now
84 °F

Sunny.


Feels Like: 94 °F
Forecast: 77 / 96 °F
Wind: No wind

Location: Chesapeake Municipal Airport

Current Time: Jul 28, 2016 at 10:30:54 AM

Latest Report: Jul 28, 2016 at 9:55 AM


Visibility: 7 mi

Pressure: 29.92 "Hg

Humidity: 81%

Dew Point: 77 °F

Location of ChesapeakeLocation

Past Weather in Chesapeake — Graph

°F

Chesapeake Temperature Yesterday

Maximum temperature yesterday: 92 °F (at 4:15 PM)
Minimum temperature yesterday: 74 °F (at 6:15 AM)
Average temperature yesterday: 82 °F

High & Low Weather Summary for the Past Weeks

 TemperatureHumidityPressure
High95 °F (Jul 24, 4:35 PM)99% (Jul 18, 3:15 AM)30.21 "Hg (Jul 18, 3:15 AM)
Low65 °F (Jul 20, 5:15 AM)43% (Jul 21, 3:15 PM)29.88 "Hg (Jul 27, 5:55 PM)
Average80 °F80%30.03 "Hg
* Reported Jul 13 9:15 AM — Jul 28 9:15 AM, Chesapeake, Weather by CustomWeather, © 2016

Note: Actual official high and low records may vary slightly from our data, if they occured in-between our weather recording intervals... More about our weather records

Advertising

Chesapeake Weather History for the Previous 24 Hours

Scroll right to see more
 ConditionsComfort  
Time TempWeatherWind HumidityBarometerVisibility
9:15 AM
Thu, Jul 28
82 °FScattered clouds.No wind87%29.92 "Hg10 mi
8:55 AM81 °FPartly sunny.3 mph90%29.93 "Hg7 mi
8:35 AM79 °FFog.3 mph94%29.93 "Hg5 mi
7:55 AM77 °FFog.No wind97%29.93 "Hg1 mi
7:35 AM77 °FFog.No wind98%29.92 "Hg1 mi
7:15 AM77 °FFog.3 mph98%29.92 "Hg1 mi
6:55 AM77 °FFog.No wind98%29.92 "Hg1 mi
6:35 AM77 °FFog.No wind97%29.92 "Hg2 mi
6:15 AM77 °FFog.No wind97%29.92 "Hg4 mi
5:55 AM77 °FFog.No wind98%29.92 "Hg5 mi
5:35 AM77 °FFog.No wind97%29.91 "Hg5 mi
5:15 AM77 °FFog.No wind97%29.90 "Hg5 mi
4:55 AM77 °FFog.No wind98%29.90 "Hg3 mi
4:35 AM78 °FClear.No wind96%29.90 "Hg7 mi
4:15 AM78 °FClear.No wind96%29.90 "Hg7 mi
3:55 AM78 °FFog.No wind97%29.90 "Hg5 mi
3:35 AM78 °FClear.No wind96%29.90 "Hg7 mi
3:15 AM78 °FClear.No wind97%29.91 "Hg7 mi
2:55 AM78 °FClear.No wind95%29.91 "Hg7 mi
2:15 AM79 °FPassing clouds.3 mph95%29.91 "Hg7 mi
1:55 AM80 °FOvercast.3 mph94%29.91 "Hg10 mi
1:35 AM80 °FPassing clouds.No wind95%29.92 "Hg10 mi
1:15 AM80 °FPassing clouds.No wind94%29.91 "Hg10 mi
12:55 AM80 °FLight rain. Partly cloudy.5 mph96%29.92 "Hg7 mi
12:15 AM80 °FThundershowers. Clear.No wind96%29.92 "Hg7 mi
11:55 PM
Wed, Jul 27
81 °FClear.No wind93%29.93 "Hg10 mi
11:35 PM81 °FClear.No wind92%29.93 "Hg10 mi
11:15 PM82 °FClear.3 mph90%29.92 "Hg10 mi
10:55 PM82 °FThundershowers. Clear.3 mph90%29.91 "Hg10 mi
10:35 PM81 °FClear.No wind93%29.90 "Hg10 mi
10:15 PM81 °FClear.3 mph92%29.90 "Hg10 mi
9:55 PM80 °FClear.No wind93%29.90 "Hg10 mi
9:15 PM82 °FClear.No wind89%29.91 "Hg10 mi
8:55 PM82 °FSunny.5 mph90%29.92 "Hg10 mi
8:35 PM83 °FScattered clouds.5 mph88%29.92 "Hg10 mi
8:15 PM84 °FScattered clouds.5 mph85%29.91 "Hg10 mi
7:55 PM84 °FSunny.No wind85%29.90 "Hg10 mi
7:35 PM86 °FSunny.3 mph80%29.92 "Hg10 mi
7:15 PM89 °FSunny.No wind71%29.91 "Hg10 mi
6:55 PM90 °FSunny.No wind69%29.91 "Hg10 mi
6:35 PM90 °FSunny.No wind69%29.89 "Hg10 mi
6:15 PM91 °FSunny.3 mph64%29.88 "Hg10 mi
5:55 PM91 °FScattered clouds.6 mph65%29.88 "Hg10 mi
5:35 PM91 °FSunny.No wind64%29.89 "Hg10 mi
5:15 PM91 °FSunny.No wind61%29.90 "Hg10 mi
4:55 PM90 °FSunny.No wind64%29.90 "Hg10 mi
4:35 PM91 °FSunny.No wind63%29.90 "Hg10 mi
4:15 PM92 °FScattered clouds.3 mph61%29.90 "Hg10 mi
3:55 PM91 °FScattered clouds.5 mph62%29.91 "Hg10 mi
3:35 PM92 °FScattered clouds.3 mph61%29.91 "Hg10 mi
3:15 PM90 °FScattered clouds.3 mph62%29.91 "Hg10 mi
2:55 PM91 °FPartly sunny.No wind58%29.92 "Hg10 mi
2:35 PM90 °FScattered clouds.No wind61%29.92 "Hg10 mi
2:15 PM91 °FSunny.3 mph61%29.93 "Hg10 mi
1:55 PM90 °FScattered clouds.7 mph61%29.93 "Hg10 mi
1:35 PM90 °FSunny.No wind59%29.94 "Hg10 mi
1:15 PM90 °FSunny.No wind60%29.94 "Hg10 mi
12:55 PM89 °FSunny.3 mph63%29.95 "Hg10 mi
12:35 PM89 °FSunny.No wind62%29.95 "Hg10 mi
12:15 PM88 °FSunny.3 mph62%29.96 "Hg10 mi
11:55 AM88 °FSunny.No wind64%29.96 "Hg10 mi
11:15 AM85 °FScattered clouds.No wind70%29.96 "Hg10 mi
10:55 AM85 °FScattered clouds.3 mph74%29.96 "Hg10 mi
10:35 AM85 °FPartly sunny.6 mph75%29.96 "Hg10 mi
10:15 AM84 °FScattered clouds.3 mph77%29.96 "Hg10 mi
Weather by CustomWeather, © 2016

See weather overviewHow to use our weather pages